Cairo, IL

12:49 AM CST on February 24, 2018 (GMT -0600)
Cairo Regional

Weather History for KCIR - February, 2014

Change the Weather History Date:

Thursday, February 6, 2014

  Actual Average Record
Temperature  
Mean Temperature 16 °F -  
Max Temperature 21 °F 39 °F 64 °F (2017)
Min Temperature 11 °F 26 °F 8 °F (1989)
Degree Days  
Heating Degree Days 48    
Moisture  
Dew Point 11 °F    
Average Humidity 73    
Maximum Humidity 79    
Minimum Humidity 67    
Precipitation  
Precipitation 0.00 in - - ()
Sea Level Pressure  
Sea Level Pressure 30.53 in    
Wind  
Wind Speed 1 mph (NNW)    
Max Wind Speed 4 mph    
Max Gust Speed -    
Visibility 10 miles    
Events Snow    
Averages and records for this station are not official NWS values.
T = Trace of Precipitation, MM = Missing Value Source: NWS Daily Summary

Daily Weather History Graph

Daily Weather History Graph

Search for Another Location

Airport or City:

Trip Planner

Search our weather history database for the weather conditions in past years. The results will help you decide how hot, cold, wet, or windy it might be!

Date:

Astronomy

Feb. 06, 2014 Rise Set
Actual Time 6:55 AM CST 5:27 PM CST
Civil Twilight 6:27 AM CST 5:54 PM CST
Nautical Twilight 5:57 AM CST 6:25 PM CST
Astronomical Twilight 5:26 AM CST 6:55 PM CST
Moon 10:59 AM CST (2/6) 12:10 AM CST (2/6)
Length of Visible Light 11h 26m
Length of Day
10h 32m
Waxing Crescent, 49% of the Moon is Illuminated
Feb 6
Waxing Crescent
Feb 6
First Quarter
Feb 14
Full
Feb 22
Last Quarter
Mar 1
New

Hourly Weather History & Observations

Time (CST) Temp. Windchill Dew Point Humidity Pressure Visibility Wind Dir Wind Speed Gust Speed Precip Events Conditions
12:15 AM 21.9 °F - 16.3 °F 79% 30.53 in 10.0 mi Calm Calm - N/A   Overcast
12:35 AM 21.7 °F - 16.2 °F 79% 30.53 in 10.0 mi Calm Calm - N/A   Overcast
12:55 AM 21.2 °F 16.4 °F 15.3 °F 78% 30.51 in 10.0 mi NNW 3.5 mph - N/A   Overcast
1:15 AM 21.2 °F - 15.4 °F 78% 30.51 in 10.0 mi Calm Calm - N/A   Overcast
1:35 AM 21.0 °F - 14.9 °F 77% 30.51 in 10.0 mi Calm Calm - N/A   Overcast
1:55 AM 20.3 °F 15.4 °F 14.0 °F 77% 30.49 in 10.0 mi North 3.5 mph - N/A   Overcast
2:15 AM 20.3 °F 15.4 °F 14.0 °F 77% 30.51 in 10.0 mi North 3.5 mph - N/A   Overcast
2:35 AM 20.3 °F 15.4 °F 14.2 °F 77% 30.50 in 10.0 mi NNW 3.5 mph - N/A   Overcast
2:55 AM 19.9 °F 14.9 °F 13.6 °F 77% 30.51 in 10.0 mi North 3.5 mph - N/A   Overcast
3:15 AM 19.9 °F - 13.8 °F 77% 30.50 in 10.0 mi Calm Calm - N/A   Overcast
3:35 AM 19.9 °F - 14.0 °F 78% 30.52 in 10.0 mi Calm Calm - N/A   Overcast
3:55 AM 19.6 °F - 13.8 °F 78% 30.52 in 10.0 mi Calm Calm - N/A   Overcast
4:15 AM 19.4 °F 14.3 °F 13.6 °F 78% 30.51 in 10.0 mi North 3.5 mph - N/A   Overcast
4:35 AM 19.4 °F - 13.6 °F 78% 30.52 in 10.0 mi Calm Calm - N/A Snow Light Snow
4:55 AM 19.4 °F - 13.6 °F 78% 30.54 in 10.0 mi Calm Calm - N/A Snow Light Snow
5:15 AM 19.4 °F - 13.6 °F 78% 30.57 in 10.0 mi Calm Calm - N/A Snow Light Snow
5:35 AM 19.2 °F - 13.5 °F 78% 30.54 in 10.0 mi Calm Calm - N/A Snow Light Snow
5:55 AM 18.9 °F 13.7 °F 13.1 °F 78% 30.55 in 10.0 mi NNW 3.5 mph - N/A Snow Light Snow
6:15 AM 18.3 °F - 12.6 °F 78% 30.56 in 10.0 mi Calm Calm - N/A   Overcast
6:35 AM 18.3 °F 13.1 °F 12.6 °F 78% 30.56 in 10.0 mi NNW 3.5 mph - N/A   Overcast
6:55 AM 17.6 °F 12.3 °F 11.8 °F 78% 30.56 in 10.0 mi NNW 3.5 mph - N/A   Overcast
7:15 AM 17.6 °F 12.3 °F 11.5 °F 77% 30.57 in 10.0 mi NNW 3.5 mph - N/A   Overcast
7:35 AM 17.6 °F 12.3 °F 11.7 °F 78% 30.58 in 10.0 mi NNW 3.5 mph - N/A   Overcast
7:55 AM 17.6 °F 12.3 °F 11.3 °F 76% 30.59 in 10.0 mi NW 3.5 mph - N/A   Overcast
8:15 AM 17.6 °F - 11.3 °F 76% 30.59 in 10.0 mi Calm Calm - N/A Snow Light Snow
8:35 AM 17.2 °F 11.9 °F 10.9 °F 76% 30.60 in 7.0 mi NW 3.5 mph - N/A Snow Light Snow
8:55 AM 17.4 °F - 10.9 °F 76% 30.60 in 7.0 mi Calm Calm - N/A Snow Light Snow
9:15 AM 18.0 °F - 11.3 °F 75% 30.60 in 7.0 mi Calm Calm - N/A Snow Light Snow
9:35 AM 18.0 °F - 11.1 °F 75% 30.59 in 10.0 mi Calm Calm - N/A Snow Light Snow
9:55 AM 19.0 °F 13.9 °F 11.5 °F 72% 30.59 in 10.0 mi North 3.5 mph - N/A   Scattered Clouds
10:15 AM 18.3 °F - 10.9 °F 73% 30.59 in 10.0 mi Calm Calm - N/A   Mostly Cloudy
10:35 AM 19.0 °F - 11.5 °F 72% 30.60 in 10.0 mi Calm Calm - N/A   Mostly Cloudy
10:55 AM 19.2 °F 14.1 °F 11.8 °F 73% 30.59 in 10.0 mi North 3.5 mph - N/A   Overcast
11:15 AM 19.2 °F 14.1 °F 12.0 °F 74% 30.58 in 10.0 mi North 3.5 mph - N/A   Overcast
11:35 AM 19.4 °F - 11.8 °F 72% 30.57 in 10.0 mi Calm Calm - N/A   Mostly Cloudy
11:55 AM 20.3 °F - 12.2 °F 71% 30.56 in 10.0 mi Calm Calm - N/A   Mostly Cloudy
12:15 PM 20.5 °F 15.6 °F 12.4 °F 71% 30.55 in 10.0 mi NNW 3.5 mph - N/A   Mostly Cloudy
12:35 PM 20.1 °F - 12.0 °F 71% 30.55 in 10.0 mi Calm Calm - N/A   Overcast
12:55 PM 20.3 °F - 12.0 °F 70% 30.53 in 10.0 mi Calm Calm - N/A   Overcast
1:15 PM 20.8 °F - 12.6 °F 70% 30.53 in 10.0 mi Calm Calm - N/A   Overcast
1:35 PM 20.8 °F - 12.2 °F 69% 30.52 in 10.0 mi Calm Calm - N/A   Overcast
1:55 PM 20.3 °F 15.4 °F 12.0 °F 70% 30.51 in 10.0 mi North 3.5 mph - N/A Snow Light Snow
2:15 PM 20.8 °F - 12.2 °F 69% 30.51 in 10.0 mi Calm Calm - N/A Snow Light Snow
2:35 PM 21.2 °F - 12.7 °F 70% 30.50 in 10.0 mi Calm Calm - N/A   Overcast
2:55 PM 20.8 °F - 12.2 °F 69% 30.50 in 10.0 mi Calm Calm - N/A   Overcast
3:15 PM 21.0 °F - 12.6 °F 70% 30.51 in 10.0 mi Calm Calm - N/A Snow Light Snow
3:35 PM 21.0 °F - 12.4 °F 69% 30.52 in 10.0 mi Calm Calm - N/A   Mostly Cloudy
3:55 PM 21.2 °F - 12.6 °F 69% 30.51 in 10.0 mi Calm Calm - N/A   Overcast
4:15 PM 21.0 °F - 12.2 °F 69% 30.52 in 10.0 mi Calm Calm - N/A   Overcast
4:35 PM 21.0 °F - 12.2 °F 69% 30.53 in 10.0 mi Calm Calm - N/A   Overcast
4:55 PM 20.7 °F - 11.8 °F 69% 30.53 in 10.0 mi Calm Calm - N/A   Overcast
5:15 PM 20.3 °F - 11.8 °F 70% 30.52 in 10.0 mi Calm Calm - N/A   Overcast
5:35 PM 19.6 °F - 11.1 °F 70% 30.52 in 10.0 mi Calm Calm - N/A   Overcast
5:55 PM 19.0 °F - 10.4 °F 69% 30.53 in 10.0 mi Calm Calm - N/A   Overcast
6:15 PM 18.3 °F - 10.2 °F 71% 30.53 in 10.0 mi Calm Calm - N/A   Overcast
6:35 PM 17.6 °F - 9.3 °F 70% 30.53 in 10.0 mi Calm Calm - N/A   Overcast
6:55 PM 16.7 °F - 8.6 °F 70% 30.52 in 10.0 mi Calm Calm - N/A   Scattered Clouds
7:15 PM 16.0 °F - 8.2 °F 72% 30.53 in 10.0 mi Calm Calm - N/A   Clear
7:35 PM 15.3 °F - 7.3 °F 71% 30.52 in 10.0 mi Calm Calm - N/A   Clear
7:55 PM 14.9 °F - 6.6 °F 70% 30.51 in 10.0 mi Calm Calm - N/A   Clear
8:15 PM 14.5 °F - 5.5 °F 68% 30.49 in 10.0 mi Calm Calm - N/A   Clear
8:35 PM 14.0 °F - 5.0 °F 67% 30.49 in 10.0 mi Calm Calm - N/A   Clear
8:55 PM 14.0 °F - 4.8 °F 67% 30.51 in 10.0 mi Calm Calm - N/A   Clear
9:15 PM 13.8 °F - 5.0 °F 68% 30.51 in 10.0 mi Calm Calm - N/A   Clear
9:35 PM 13.5 °F - 5.0 °F 69% 30.53 in 10.0 mi Calm Calm - N/A   Clear
9:55 PM 13.1 °F - 4.8 °F 70% 30.53 in 10.0 mi Calm Calm - N/A   Clear
10:15 PM 12.9 °F - 4.6 °F 70% 30.52 in 10.0 mi Calm Calm - N/A   Clear
10:35 PM 12.7 °F - 4.5 °F 70% 30.51 in 10.0 mi Calm Calm - N/A   Clear
10:55 PM 12.2 °F - 4.5 °F 71% 30.50 in 10.0 mi Calm Calm - N/A   Clear
11:15 PM 12.4 °F - 4.5 °F 71% 30.51 in 10.0 mi Calm Calm - N/A   Clear
11:35 PM 12.2 °F - 4.6 °F 72% 30.52 in 10.0 mi Calm Calm - N/A   Clear
11:55 PM 11.3 °F - 4.3 °F 73% 30.51 in 10.0 mi Calm Calm - N/A   Clear